Location: Unspecified
(55.7024°N, 37.6611°E)
Time: 19:12:55
(UTC+03:00)

Transit 2A Rocket - Visible Passes

Search period start: 23 June 2025 00:00
Search period end: 03 July 2025 00:00
Orbit: 590 x 896 km, 66.7° (Epoch: 22 June)

Date Brightness Start Highest point End Pass type
(mag) Time Alt. Az. Time Alt. Az. Time Alt. Az.
23 Jun 6.9 02:24:26 10° SE 02:26:21 13° ESE 02:28:18 10° E visible
25 Jun 6.1 02:34:16 10° S 02:37:49 26° ESE 02:41:28 10° ENE visible
26 Jun 6.7 01:50:27 10° SE 01:52:59 15° ESE 01:55:34 10° ENE visible
27 Jun 5.1 02:45:20 10° SSW 02:49:29 50° SE 02:53:49 10° NE visible
28 Jun 5.8 02:00:44 10° S 02:04:30 30° ESE 02:08:23 10° ENE visible
29 Jun 6.4 01:16:38 10° SSE 01:19:37 18° ESE 01:22:40 10° ENE visible
30 Jun 6.8 00:33:53 10° ESE 00:34:52 11° ESE 00:35:51 10° E visible
30 Jun 4.8 02:12:08 11° SSW 02:16:12 60° SE 02:20:38 10° NE visible
01 Jul 5.4 01:27:56 14° S 01:31:10 36° ESE 01:35:17 10° NE visible
02 Jul 6.1 00:43:42 14° SSE 00:46:15 22° ESE 00:49:41 10° ENE visible
02 Jul 4.7 02:23:48 10° SW 02:28:07 75° NW 02:32:41 10° NE visible
